TimeEDT,TemperatureF,Dew PointF,Humidity,Sea Level PressureIn,VisibilityMPH,Wind Direction,Wind SpeedMPH,Gust SpeedMPH,PrecipitationIn,Events,Conditions,WindDirDegrees,DateUTC
12:15 AM,57.2,55.4,94,29.89,10.0,Calm,Calm,-,N/A,,Partly Cloudy,0,2012-08-21 04:15:00
12:55 AM,57.2,55.4,94,29.89,10.0,Calm,Calm,-,N/A,,Scattered Clouds,0,2012-08-21 04:55:00
1:15 AM,57.2,55.4,94,29.89,8.0,Calm,Calm,-,N/A,,Mostly Cloudy,0,2012-08-21 05:15:00
1:35 AM,57.2,55.4,94,29.88,9.0,Calm,Calm,-,N/A,,Scattered Clouds,0,2012-08-21 05:35:00
2:15 AM,57.2,55.4,94,29.88,5.0,Calm,Calm,-,N/A,,Partly Cloudy,0,2012-08-21 06:15:00
2:35 AM,57.2,55.4,94,29.88,8.0,Calm,Calm,-,N/A,,Scattered Clouds,0,2012-08-21 06:35:00
2:55 AM,57.2,55.4,94,29.88,6.0,Calm,Calm,-,N/A,,Partly Cloudy,0,2012-08-21 06:55:00
3:15 AM,57.2,55.4,94,29.89,9.0,Calm,Calm,-,N/A,,Partly Cloudy,0,2012-08-21 07:15:00
3:35 AM,57.2,55.4,94,29.89,7.0,Calm,Calm,-,N/A,,Scattered Clouds,0,2012-08-21 07:35:00
3:55 AM,59.0,55.4,88,29.88,10.0,Calm,Calm,-,N/A,,Partly Cloudy,0,2012-08-21 07:55:00
4:15 AM,59.0,55.4,88,29.89,10.0,Calm,Calm,-,N/A,,Mostly Cloudy,0,2012-08-21 08:15:00
4:35 AM,60.8,57.2,88,29.89,10.0,Calm,Calm,-,N/A,,Overcast,0,2012-08-21 08:35:00
4:55 AM,60.8,57.2,88,29.89,10.0,Calm,Calm,-,N/A,,Overcast,0,2012-08-21 08:55:00
5:15 AM,60.8,57.2,88,29.90,10.0,Calm,Calm,-,N/A,,Overcast,0,2012-08-21 09:15:00
5:55 AM,60.8,57.2,88,29.91,9.0,Calm,Calm,-,N/A,,Overcast,0,2012-08-21 09:55:00
6:15 AM,60.8,57.2,88,29.92,5.0,Calm,Calm,-,N/A,,Overcast,0,2012-08-21 10:15:00
6:35 AM,60.8,59.0,94,29.92,8.0,Calm,Calm,-,N/A,,Overcast,0,2012-08-21 10:35:00
6:55 AM,60.8,59.0,94,29.93,7.0,Calm,Calm,-,N/A,,Overcast,0,2012-08-21 10:55:00
7:15 AM,62.6,60.8,94,29.93,5.0,North,3.5,-,N/A,,Overcast,360,2012-08-21 11:15:00
7:35 AM,62.6,60.8,94,29.93,6.0,Calm,Calm,-,N/A,,Overcast,0,2012-08-21 11:35:00
7:55 AM,64.4,60.8,88,29.93,10.0,WSW,3.5,-,N/A,,Overcast,240,2012-08-21 11:55:00
8:15 AM,66.2,60.8,83,29.94,10.0,West,5.8,-,N/A,,Mostly Cloudy,270,2012-08-21 12:15:00
8:35 AM,66.2,62.6,88,29.94,10.0,West,4.6,-,N/A,,Partly Cloudy,270,2012-08-21 12:35:00
8:55 AM,69.8,60.8,73,29.95,10.0,Calm,Calm,-,N/A,,Partly Cloudy,0,2012-08-21 12:55:00
9:15 AM,71.6,59.0,64,29.95,10.0,WNW,3.5,-,N/A,,Clear,290,2012-08-21 13:15:00
9:55 AM,75.2,60.8,61,29.95,10.0,Calm,Calm,-,N/A,,Clear,0,2012-08-21 13:55:00
10:15 AM,75.2,59.0,57,29.96,9.0,Calm,Calm,-,N/A,,Clear,0,2012-08-21 14:15:00
10:35 AM,77.0,60.8,57,29.96,10.0,WSW,5.8,-,N/A,,Clear,250,2012-08-21 14:35:00
10:55 AM,77.0,59.0,54,29.96,10.0,West,5.8,-,N/A,,Clear,270,2012-08-21 14:55:00
11:15 AM,77.0,57.2,50,29.97,10.0,WSW,3.5,-,N/A,,Scattered Clouds,240,2012-08-21 15:15:00
11:35 AM,78.8,57.2,47,29.96,10.0,West,4.6,-,N/A,,Partly Cloudy,260,2012-08-21 15:35:00
11:55 AM,80.6,57.2,45,29.96,9.0,WNW,5.8,-,N/A,,Scattered Clouds,290,2012-08-21 15:55:00
12:15 PM,78.8,57.2,47,29.96,10.0,SW,3.5,-,N/A,,Scattered Clouds,230,2012-08-21 16:15:00
12:35 PM,78.8,57.2,47,29.96,10.0,WNW,5.8,-,N/A,,Partly Cloudy,290,2012-08-21 16:35:00
12:55 PM,78.8,57.2,47,29.96,8.0,SE,5.8,-,N/A,,Scattered Clouds,130,2012-08-21 16:55:00
1:15 PM,77.0,60.8,57,29.97,10.0,SSE,5.8,-,N/A,,Mostly Cloudy,150,2012-08-21 17:15:00
1:35 PM,75.2,60.8,61,29.97,10.0,ESE,6.9,-,N/A,,Scattered Clouds,120,2012-08-21 17:35:00
1:55 PM,75.2,59.0,57,29.98,8.0,SE,6.9,-,N/A,,Mostly Cloudy,140,2012-08-21 17:55:00
2:15 PM,75.2,59.0,57,29.97,5.0,SSE,9.2,-,N/A,,Scattered Clouds,150,2012-08-21 18:15:00
2:35 PM,75.2,57.2,53,29.97,10.0,South,6.9,-,N/A,,Partly Cloudy,180,2012-08-21 18:35:00
2:55 PM,75.2,59.0,57,29.98,10.0,SE,4.6,-,N/A,,Scattered Clouds,130,2012-08-21 18:55:00
3:15 PM,75.2,57.2,53,29.98,10.0,SSE,6.9,-,N/A,,Partly Cloudy,150,2012-08-21 19:15:00
3:35 PM,75.2,59.0,57,29.98,10.0,SE,3.5,-,N/A,,Mostly Cloudy,140,2012-08-21 19:35:00
3:55 PM,75.2,60.8,61,29.97,10.0,ESE,4.6,-,N/A,,Partly Cloudy,110,2012-08-21 19:55:00
4:15 PM,75.2,59.0,57,29.98,10.0,SSE,6.9,-,N/A,,Clear,150,2012-08-21 20:15:00
4:35 PM,75.2,60.8,61,29.98,10.0,ESE,5.8,-,N/A,,Partly Cloudy,120,2012-08-21 20:35:00
4:55 PM,75.2,60.8,61,29.98,10.0,SSE,5.8,-,N/A,,Clear,160,2012-08-21 20:55:00
5:15 PM,75.2,60.8,61,29.98,10.0,SSE,3.5,-,N/A,,Clear,160,2012-08-21 21:15:00
5:55 PM,73.4,60.8,65,29.99,10.0,South,5.8,-,N/A,,Clear,170,2012-08-21 21:55:00
6:15 PM,73.4,60.8,65,30.00,10.0,Calm,Calm,-,N/A,,Clear,0,2012-08-21 22:15:00
6:35 PM,71.6,62.6,73,30.00,10.0,Calm,Calm,-,N/A,,Clear,0,2012-08-21 22:35:00
6:55 PM,71.6,62.6,73,30.00,10.0,Calm,Calm,-,N/A,,Clear,0,2012-08-21 22:55:00
7:35 PM,69.8,62.6,78,30.01,10.0,Calm,Calm,-,N/A,,Clear,0,2012-08-21 23:35:00
7:55 PM,66.2,62.6,88,30.02,10.0,Calm,Calm,-,N/A,,Clear,0,2012-08-21 23:55:00
8:15 PM,64.4,60.8,88,30.03,10.0,Calm,Calm,-,N/A,,Clear,0,2012-08-22 00:15:00
8:35 PM,62.6,59.0,88,30.03,10.0,Calm,Calm,-,N/A,,Clear,0,2012-08-22 00:35:00
8:55 PM,62.6,59.0,88,30.05,9.0,WSW,3.5,-,N/A,,Clear,250,2012-08-22 00:55:00
9:35 PM,60.8,59.0,94,30.05,6.0,WSW,3.5,-,N/A,,Clear,250,2012-08-22 01:35:00
9:55 PM,60.8,59.0,94,30.06,8.0,Calm,Calm,-,N/A,,Clear,0,2012-08-22 01:55:00
10:15 PM,60.8,57.2,88,30.06,6.0,West,3.5,-,N/A,,Clear,260,2012-08-22 02:15:00
10:35 PM,59.0,57.2,94,30.06,7.0,Calm,Calm,-,N/A,,Clear,0,2012-08-22 02:35:00
10:55 PM,57.2,55.4,94,30.07,2.5,WSW,3.5,-,N/A,,Clear,240,2012-08-22 02:55:00
11:15 PM,57.2,55.4,94,30.07,10.0,WSW,3.5,-,N/A,,Clear,240,2012-08-22 03:15:00
11:35 PM,57.2,53.6,88,30.07,9.0,WSW,3.5,-,N/A,,Clear,240,2012-08-22 03:35:00
11:55 PM,57.2,53.6,88,30.08,10.0,Calm,Calm,-,N/A,,Clear,0,2012-08-22 03:55:00